Hanford, CA

10:25 AM PDT on September 23, 2017 (GMT -0700)
Hanford Municipal

Weather History for KHJO - May, 2014

Change the Weather History Date:

Thursday, May 1, 2014

  Actual Average Record
Temperature  
Mean Temperature 75 °F 65 °F  
Max Temperature 95 °F 80 °F 98 °F (2015)
Min Temperature 54 °F 50 °F 40 °F (2011)
Degree Days  
Heating Degree Days 0    
Month to date heating degree days 0  
Since 1 July heating degree days 2042  
Cooling Degree Days 10    
Month to date cooling degree days 10  
Year to date cooling degree days 85  
Growing Degree Days 24 (Base 50)    
Moisture  
Dew Point 44 °F    
Average Humidity 43    
Maximum Humidity 72    
Minimum Humidity 14    
Precipitation  
Precipitation 0.00 in 0.02 in 0.42 in (2009)
Month to date precipitation 0.00 0.02  
Year to date precipitation 2.43 6.21  
Since 1 July precipitation 2.82  
Snow  
Snow 0.00 in - - ()
Month to date snowfall 0.0  
Since 1 July snowfall 0.0  
Snow Depth 0.00 in    
Sea Level Pressure  
Sea Level Pressure 30.04 in    
Wind  
Wind Speed 6 mph (WNW)    
Max Wind Speed 15 mph    
Max Gust Speed 20 mph    
Visibility 9 miles    
Events      
T = Trace of Precipitation, MM = Missing Value Source: NWS Daily Summary

Daily Weather History Graph

Daily Weather History Graph

Search for Another Location

Airport or City:

Trip Planner

Search our weather history database for the weather conditions in past years. The results will help you decide how hot, cold, wet, or windy it might be!

Date:

Astronomy

May. 01, 2014 Rise Set
Actual Time 6:05 AM PDT 7:46 PM PDT
Civil Twilight 5:37 AM PDT 8:14 PM PDT
Nautical Twilight 5:04 AM PDT 8:47 PM PDT
Astronomical Twilight 4:29 AM PDT 9:22 PM PDT
Moon 7:58 AM PDT (5/1) 10:22 PM PDT (5/1)
Length of Visible Light 14h 36m
Length of Day
13h 41m
Waxing Crescent, 7% of the Moon is Illuminated
May 1
Waxing Crescent
May 6
First Quarter
May 14
Full
May 21
Last Quarter
May 28
New

Hourly Weather History & Observations

Time (PDT) Temp. Dew Point Humidity Pressure Visibility Wind Dir Wind Speed Gust Speed Precip Events Conditions
12:53 AM 64.0 °F 48.0 °F 56% 30.03 in 10.0 mi ENE 3.5 mph - N/A   Clear
1:53 AM 59.0 °F 46.0 °F 62% 30.02 in 8.0 mi South 3.5 mph - N/A   Clear
2:53 AM 63.0 °F 46.9 °F 56% 30.02 in 10.0 mi West 3.5 mph - N/A   Clear
3:53 AM 63.0 °F 46.0 °F 54% 30.02 in 10.0 mi NW 3.5 mph - N/A   Clear
4:53 AM 63.0 °F 46.0 °F 54% 30.03 in 10.0 mi NNW 3.5 mph - N/A   Clear
5:53 AM 55.0 °F 46.9 °F 74% 30.04 in 9.0 mi SSE 4.6 mph - N/A   Clear
6:53 AM 57.0 °F 46.9 °F 69% 30.06 in 6.0 mi WSW 3.5 mph - N/A   Haze
7:53 AM 68.0 °F 46.9 °F 47% 30.08 in 6.0 mi SW 4.6 mph - N/A   Haze
8:53 AM 72.0 °F 46.0 °F 40% 30.10 in 8.0 mi Calm Calm - N/A   Clear
9:53 AM 75.0 °F 48.9 °F 40% 30.10 in 7.0 mi SSE 4.6 mph - N/A   Clear
10:53 AM 81.0 °F 48.0 °F 31% 30.10 in 8.0 mi Calm Calm - N/A   Clear
11:53 AM 84.9 °F 46.9 °F 27% 30.10 in 10.0 mi SSW 6.9 mph - N/A   Clear
12:53 PM 87.1 °F 43.0 °F 21% 30.08 in 10.0 mi Variable 4.6 mph - N/A   Clear
1:53 PM 91.9 °F 39.9 °F 16% 30.06 in 10.0 mi West 6.9 mph - N/A   Clear
2:53 PM 93.0 °F 42.1 °F 17% 30.05 in 10.0 mi NW 8.1 mph - N/A   Clear
3:53 PM 93.9 °F 43.0 °F 17% 30.03 in 10.0 mi NNW 8.1 mph - N/A   Clear
4:53 PM 93.0 °F 42.1 °F 17% 30.01 in 10.0 mi NNW 9.2 mph - N/A   Clear
5:53 PM 91.9 °F 35.1 °F 13% 30.00 in 10.0 mi North 6.9 mph - N/A   Clear
6:53 PM 90.0 °F 39.9 °F 17% 29.99 in 10.0 mi NW 8.1 mph - N/A   Clear
7:53 PM 84.9 °F 42.1 °F 22% 29.99 in 10.0 mi WNW 3.5 mph - N/A   Clear
8:53 PM 79.0 °F 45.0 °F 30% 30.01 in 10.0 mi Calm Calm - N/A   Clear
9:53 PM 82.0 °F 43.0 °F 25% 30.02 in 10.0 mi NW 9.2 mph - N/A   Clear
10:53 PM 77.0 °F 46.9 °F 34% 30.03 in 10.0 mi WNW 12.7 mph - N/A   Clear
11:53 PM 75.9 °F 41.0 °F 29% 30.03 in 10.0 mi WNW 13.8 mph - N/A   Clear